Location: Marion Hill
(40.7303°N, 80.2959°W)
Time: 08:36:22
(UTC+00:00)

Cosmos 1340 - Pass Details

Date: 29 October 2020
Orbit: 501 x 504 km, 81.2° (Epoch: 28 November)

Event Time Altitude Azimuth Distance (km) Brightness Sun altitude
Rises 23:41:23 0° 344° (NNW) 2,614 6.4 -15.8°
Reaches altitude 10° 23:43:34 10° 338° (NNW) 1,724 5.6 -16.3°
Maximum altitude 23:47:11 45° 265° (W) 695 3.8 -16.9°
Drops below altitude 10° 23:50:47 10° 192° (SSW) 1,711 5.5 -17.6°
Sets 23:52:57 0° 186° (S) 2,590 6.4 -18.0°
